Location: ??????????
(54.4061°N, 22.6114°E)
Time: 10:46:39
(UTC+00:00)

SJ 16-02 - Pass Details

Date: 23 October 2019
Orbit: 607 x 616 km, 75.0° (Epoch: 14 November)

Event Time Altitude Azimuth Distance (km) Brightness Sun altitude
Rises 18:49:23 0° 323° (NW) 2,882 5.7 -31.3°
Reaches altitude 10° 18:52:22 10° 302° (WNW) 1,970 4.8 -31.7°
Maximum altitude 18:55:00 16° 265° (W) 1,617 4.0 -32.1°
Enters shadow 18:56:27 14° 242° (WSW) 1,728 3.9 -32.2°
